Regional Weather Roundup
Issued by NWS Wakefield, VA

Home | Current Version | Previous Version | Graphics & Text | Print | Product List | Glossary On
Versions: 1 2 3 4 5 6 7 8 9 10 11 12 13 14 15 16 17 18 19 20 21 22 23 24 25 26 27 28 29 30 31 32 33 34 35 36 37 38 39 40 41 42 43 44 45 46 47 48 49 50
000
ASUS41 KAKQ 300215
RWRAKQ

REGIONAL WEATHER ROUNDUP
NATIONAL WEATHER SERVICE WAKEFIELD VA
1000 PM EDT SAT APR 29 2017

Note: "fair" indicates few or no clouds below 12,000 feet with no
significant weather and/or obstructions to visibility. * = Denotes
station may not report precipitation (e.g., rain,snow,etc.),
thunder or fog.

VAZ042-051-052>054-056-300300-
NORTHERN VIRGINIA

CITY           SKY/WX    TMP DP  RH WIND       PRES   REMARKS
WASH NATIONAL  MOCLDY    78  72  81 S9        30.07R
DULLES         PTCLDY    79  68  69 S5        30.07S
FORT BELVOIR   PTCLDY    73  70  91 CALM      30.07S
QUANTICO       CLOUDY    75  71  87 SW7       30.08R
FREDERICKSBRG* CLOUDY    79  72  80 S7        30.08S
STAFFORD*      MOCLDY    78  72  82 CALM      30.11S
WARRENTON      CLOUDY    80  68  68 S5        30.08S
CULPEPER*      PTCLDY    77  72  85 CALM      30.09S
MANASSAS*        N/A     77  71  82 S3        30.08R
LEESBURG*      PTCLDY    75  73  94 CALM      30.08S
WINCHESTER     CLOUDY    66  63  88 NW3       30.08S
FRONT ROYAL*   PTCLDY    70  68  94 CALM      30.07F
LURAY*         MOCLDY    72  70  94 CALM      30.10S
$$

VAZ048-049-060>072-079>083-300300-
CENTRAL AND SOUTH CENTRAL VIRGINIA

CITY           SKY/WX    TMP DP  RH WIND       PRES   REMARKS
RICHMOND       MOCLDY    76  71  85 SW7       30.11R
CHESTERFIELD*  FAIR     N/A N/A N/A S3        30.13R
PETERSBURG*    CLEAR     77  70  79 S3        30.12R
HANOVER        CLEAR     78  69  73 S3        30.12R
TAPPAHANNOCK*  CLEAR     75  68  79 S3        30.11R
QUINTON*       FAIR      77  74  92 MISG      30.11R
CHARLOTTSVILLE PTCLDY    79  70  74 S8        30.09R
GORDONSVILLE*  PTCLDY    74  71  91 CALM      30.09R
ORANGE*        CLEAR     73  70  88 CALM      30.10R
LOUISA*        CLEAR     82  73  74 S3        30.10R
BUMPASS*       FAIR      75  72  92 CALM      30.10S
FARMVILLE*     PTCLDY    76  73  91 CALM      30.10S
CREWE*         FAIR      77  77 100 CALM      30.12R
FORT PICKETT*  NOT AVBL
CHASE CITY*    FAIR      78  72  82 S6        30.13R
CLARKSVILLE*   FAIR      77  72  83 S6        30.13R
SOUTH HILL*    CLEAR     74  72  91 S6        30.19R
LAWRENCEVILLE* FAIR      77  70  78 S6        30.14R
EMPORIA*       CLEAR     75  70  83 CALM      30.15R
$$

VAZ088>098-300300-
SOUTHEAST VIRGINIA

CITY           SKY/WX    TMP DP  RH WIND       PRES   REMARKS
NORFOLK        PTCLDY    82  70  66 SW15      30.11R
VIRGINIA BEACH CLEAR     80  70  71 SW12      30.11R
NORFOLK NAVAL  CLEAR     82  69  64 SW10      30.13R
WEST POINT*    CLEAR     78  71  78 CALM      30.13R
SALUDA*        FAIR      79  74  85 CALM      30.11R
NEWPORT NEWS   CLEAR     79  70  74 SW8       30.12R
LANGLEY AFB    CLEAR     81  72  72 SW12      30.11R
FORT EUSTIS    CLEAR     78  71  79 CALM      30.10R
WILLIAMSBURG*  CLEAR     81  72  74 CALM      30.13R
HR EXEC AP*    FAIR      79  70  73 SW7       30.11R
FRANKLIN*      CLEAR     79  70  74 S6        30.14R
US460-WAKEFLD  CLEAR     79  71  76 SW5       30.12R
$$

VAZ020-022-025-037-045-300300-
WEST CENTRAL AND SOUTHWEST VIRGINIA

CITY           SKY/WX    TMP DP  RH WIND       PRES   REMARKS
STAUNTON*      PTCLDY    73  67  81 S3        30.14R
WAYNESBORO*    PTCLDY    77  70  79 S10       30.14R
HOT SPRINGS VA PTCLDY    68  63  83 S8        30.27S
LYNCHBURG      PTCLDY    75  69  81 S6        30.15R
DANVILLE       CLEAR     75  71  87 S5        30.13R
SOUTH BOSTON*  FAIR      77  71  82 S7        30.12S
MARTINSVILLE   CLEAR     75  68  78 CALM      30.17S
ROANOKE        MOCLDY    77  67  71 S6        30.15R
BLACKSBURG     MOCLDY    71  65  83 CALM      30.21S
DUBLIN*        MOCLDY    75  64  69 S5        30.18F
MARION*        CLEAR     73  66  79 CALM      30.20R
HILLSVILLE*    PTCLDY    72  69  92 S8G17     30.19S
RICHLANDS*     FAIR      74  62  65 SE3       30.17R
WISE*          MOCLDY    75  59  57 S8        30.16R
ABINGDON*      CLOUDY    71  64  78 CALM      30.14R
$$

MDZ021>025-VAZ099-100-300300-
SOUTHERN MARYLAND AND THE DELMARVA PENINSULA

CITY           SKY/WX    TMP DP  RH WIND       PRES   REMARKS
PATUXENT RIVER PTCLDY    79  74  84 SW3       30.09R
BAY BRIDGE APT CLEAR     72  66  83 CALM      30.07S
LEONARDTOWN    PTCLDY    77  70  78 CALM      30.11R
DOVER          CLEAR     74  74 100 SE3       30.06S
GEORGETOWN     MOCLDY    78  72  81 SW7       30.08R
EASTON         CLEAR     77  72  83 SW3       30.11R
CAMBRIDGE      CLEAR     75  72  88 SE3       30.09R
SALISBURY      PTCLDY    76  73  91 SW5       30.10R
OCEAN CITY     MOCLDY    69  66  90 SW5       30.11R
WALLOPS ISLAND CLOUDY    70  68  93 S6        30.11R
ACCOMACK*      PTCLDY    80  72  77 SW7       30.11R
$$

NCZ012>017-030>032-300300-
NORTH CENTRAL AND EASTERN NORTH CAROLINA

CITY           SKY/WX    TMP DP  RH WIND       PRES   REMARKS
ROANOKE RAPIDS FAIR      75  70  83 S6        30.15R
RALEIGH        MOCLDY    78  67  68 S3        30.16R
ELIZABETH CITY CLEAR     77  73  87 S14       30.15R
AHOSKIE*         N/A     74  70  87 S7        30.16R
EDENTON*       CLEAR     78  72  81 S10       30.18R
CURRITUCK*     CLEAR     78  72  81 SW9       30.14S
KILL DEVIL HLS CLEAR     75  70  84 SW9       30.15R
MANTEO         CLEAR     75  70  86 SW16      30.18R
CAPE HATTERAS  CLEAR     74  71  91 SW12G21   30.20S FOG
TARBORO*       NOT AVBL
GOLDSBORO      CLEAR     77  74  89 S9        30.17R
WASHINGTON     CLEAR     74  69  84 S7        30.18R
GREENVILLE     CLEAR     77  72  83 S12       30.19R
NEW BERN       CLEAR     73  71  93 S9        30.21R
WILMINGTON     CLEAR     73  70  90 S7        30.21R
$$

VAZ048-300300-
ELSEWHERE

CITY           SKY/WX    TMP DP  RH WIND       PRES   REMARKS
HARRISBURG PA  MOCLDY    68  64  87 CALM      30.08R
BALTIMORE      PTCLDY    75  68  78 CALM      30.06R
ANNAPOLIS      CLEAR     71  69  93 SE5       30.07R
ANDREWS AFB    PTCLDY    78  69  75 S7        30.07R
PHILADELPHIA   CLOUDY    74  62  66 S5        30.08R
HENDERSON NC   CLEAR     74  67  81 S6        30.16R
GREENSBORO     MOCLDY    76  70  82 S8        30.15R
ROCKY MOUNT    CLEAR     77  71  82 S7        30.17R
$$

VAZ100-300300-
MARINE

STATION/POSITION TIME  TEMP    WIND        PRES    WAVE   SWELL
                       AIR SEA DIR/SP/G            HT/PER HT/PER
                 (UTC) (F)     (DEG/KT/KT) (MB)    (FT/S) (FT/S)
CAPE MAY NJ      0130   68 62  110/  4/  5 1018.2R
LEWES DE         0148   80 59  210/  5/  6 1018.4R
15NM E FENWICK I 0050   61 58  200/ 14/ 16 1018.8    3/ 6   2/ 8
WACHAPREAGUE VA  0148   74 75  210/  5/  8 1019.2R
THOMAS POINT MD  0100   70 61  180/ 11/ 11   N/A
GOOSES REEF MD   0200   68 59  160/  8/  8 1019.2    1
COVE POINT MD    0130   79     210/  5/  5 1019.3R
SOLOMONS ISLAND  0130   74 63   80/  2/  2   N/A
BISHOPS HEAD MD  0130   73 73  180/  8/  8 1019.5R
PINEY POINT MD   0130          220/  2/  3   N/A
POTOMAC MD       0200   73 67  190/  6/  6 1018.5    0
CAMBRIDGE MD     0130   77 67                N/A
LEWISETTA VA     0148   80 69  200/  3/  3 1019.1R
RAPPAHANNOCK LGT 0130          200/ 13/ 14 1020.1R
STINGRAY PT      0150   72     220/  8/  8 1019.8R
YORK RVR RNG VA  0148   78     240/  9/ 10 1019.1R
YORKTOWN VA      0136   81 68  230/  6/ 10 1019.2R
JAMESTOWN VA     0200   78 72   CALM  /  2   N/A     0
DOMINION TERM VA 0130   80     140/  3/  4 1019.9R
KIPTOPEKE VA     0130      67   CALM  /  2   N/A
CHES BAY BRIDGE  0130   81 65  240/ 15/ 17 1019.4R
CAPE HENRY VA    0130   82     220/  7/ 13   N/A
WILLOUBY STN VA  0130   81     220/ 15/ 17 1020.6R
S CRANEY ISL VA  0130   81     210/  7/ 11 1019.6R
CAPE HENRY BUOY  0142      65                N/A     2/ 7
1ST LANDING BUOY 0200   75 65              1019.9    2/ 3
CAPE CHARLES BUO 0151      63                N/A     2/ 6
64NM E OF VA BCH 0050   65 58  220/ 17/ 21 1020.1    4/ 4   2/ 8
DUCK PIER NC     0130   76 58  210/ 18/ 23 1020.2R
44100 DUCK FRF   0105      62                N/A     3/ 4
44056 DUCK FRF   0130      60                N/A     2/ 7
OREGON INLET NC  0130   75 78  200/ 17/ 19 1021.8R
HATTERAS NC      0148   74 75  210/ 11/ 15 1022.5R
DIAMOND SHLS NC  0050   76 76  210/ 16/ 19 1022.7    4/ 4   2/ 7
CAPE LOOKOUT NC  0100   73     210/  9/ 12 1022.8R
$$



USA.gov is the U.S. government's official web portal to all federal, state and local government web resources and services.